SH, 96, 201902110530,  10, DVTS,         CI,  , 1560S, 16210E,      , 2,  25, 2,     ,  ,     ,    ,     ,     ,     ,     ,     ,  ,  ,  ,  ,  ,    ,    , P,  KNES,  VK,  VIM, 3, 1010 /////,      ,   , HMWRI8, LLCC, T, DT=1.0 BO CBND MET=1.0 PT=1.0 FTBO DT
SH, 96, 201902111130,  10, DVTS,         CI,  , 1550S, 16270E,      , 3,  25, 2,     ,  ,     ,    ,     ,     ,     ,     ,     ,  ,  ,  ,  ,  ,    ,    , P,  KNES,  VK,   IM, 5, 1515 /////,      ,   , HMWRI8, LLCC, T, DT=1.5 BO SHR  MET=1.0 PT=1.5 FTBO PT
SH, 96, 201902111730,  10, DVTS,         CI,  , 1480S, 16270E,      , 3,  25, 2,     ,  ,     ,    ,     ,     ,     ,     ,     ,  ,  ,  ,  ,  ,    ,    , P,  KNES,  KH,   IM, 5, 1515 /////,      ,   , HMWRI8, LLCC, T, DT=1.5 BO SHR  MET=1.0 PT=1.5 FTBO PT
SH, 96, 201902112330,  10, DVTS,         CI,  , 1410S, 16370E,      , 2,  30, 2,     ,  ,     ,    ,     ,     ,     ,     ,     ,  ,  ,  ,  ,  ,    ,    , P,  KNES,  JF,   IM, 3, 2020 /////,      ,   , HMWRI8, LLCC, T, DT=2.5 BO CBND MET=1.5 PT=2.0 FTBO PT
SH, 96, 201902282330,  10, DVTS,         CI,  , 1050S,  7770E,      , 2,  25, 2,     ,  ,     ,    ,     ,     ,     ,     ,     ,  ,  ,  ,  ,  ,    ,    , S,  KNES,  JV,   IM, 3, 1010 /////,      ,   ,   MET8, LLCC, T, DT=1.0 BO CBND MET=1.0 PT=1.0 FTBO DT
SH, 96, 201903010530,  10, DVTS,         CI,  , 1000S,  7630E,      , 3,  25, 2,     ,  ,     ,    ,     ,     ,     ,     ,     ,  ,  ,  ,  ,  ,    ,    , S,  KNES,  MT,  VIM, 5, 1515 /////,      ,   ,   MET8, LLCC, T, DT=1.5 BO CBND MET=1.0 PT=1.5 FTBO DT
SH, 96, 201903011130,  10, DVTS,         CI,  , 1040S,  7590E,      , 3,  25, 2,     ,  ,     ,    ,     ,     ,     ,     ,     ,  ,  ,  ,  ,  ,    ,    , S,  KNES,  MT,  VIM, 5, 1515 /////,      ,   ,   MET8, LLCC, T, DT=1.5 BO SHR  MET=1.0 PT=1.5 FTBO PT
SH, 96, 201903011730,  10, DVTS,         CI,  , 1110S,  7640E,      , 2,  30, 2,     ,  ,     ,    ,     ,     ,     ,     ,     ,  ,  ,  ,  ,  ,    ,    , S,  KNES,  KH,   IM, 3, 2020 /////,      ,   ,   MET8, LLCC, T, DT=2.0 BO SHR  MET=1.5 PT=2.0 FTBO PT
SH, 96, 201903012212,  30, SSMI,          C,  , 1010S,  7510E,      , 2,    ,  ,     ,  ,     ,    ,     ,     ,     ,     ,     ,  ,  ,  ,  ,  ,    ,    , S,  KNES,  JF,  ,    ,       ,   ,     ,     ,     ,    ,   SSMI,    ,     ,     ,     ,     ,     ,     ,     ,     ,     ,  ,  ,  ,  ,  ,  ,  ,  , 2, 37GHz
SH, 96, 201903012330,  10, DVTS,         CI,  , 1010S,  7480E,      , 2,  35, 2,     ,  ,     ,    ,     ,     ,     ,     ,     ,  ,  ,  ,  ,  ,    ,    , S,  KNES,  JF,   IM, 3, 2525 /////,      ,   ,   MET8, LLCC, T, DT=2.5 BO CBND MET=2.0 PT=2.5 FTBO DT
SH, 96, 201903012331,  10, DVTS,         CI,  , 1110S,  7520E,      , 2,  35, 2,     ,  ,     ,    ,     ,     ,     ,     ,     ,  ,  ,  ,  ,  ,    ,    , S,  KNES,  MT,   IM, 3, 2525 /////,      ,   ,   MET8, LLCC, T, COR DT=2.5 BO CBND MET=2.0 PT=2.5 FTBO DT
SH, 96, 201903012334,  30, AMSU,          C,  , 1110S,  7520E,      , 2,    ,  ,     ,  ,     ,    ,     ,     ,     ,     ,     ,  ,  ,  ,  ,  ,    ,    , S,  KNES,  MT,  ,    ,       ,   ,     ,     ,     ,    ,   AMSU,    ,     ,     ,     ,     ,     ,     ,     ,     ,     ,  ,  ,  ,  ,  ,  ,  ,  , 2, 89GHz
SH, 96, 201903020042,  30, WSAT,          C,  , 1140S,  7520E,      , 2,    ,  ,     ,  ,     ,    ,     ,     ,     ,     ,     ,  ,  ,  ,  ,  ,    ,    , S,  KNES,  MT,  ,    ,       ,   ,     ,     ,     ,    ,   WSAT,    ,     ,     ,     ,     ,     ,     ,     ,     ,     ,  ,  ,  ,  ,  ,  ,  ,  , 2, 37GHz
SH, 96, 201903020131,  30, SSMS,          C,  , 1140S,  7520E,      , 2,    ,  ,     ,  ,     ,    ,     ,     ,     ,     ,     ,  ,  ,  ,  ,  ,    ,    , S,  KNES,  MT,  ,    ,       ,   ,     ,     ,     ,    ,   SSMS,    ,     ,     ,     ,     ,     ,     ,     ,     ,     ,  ,  ,  ,  ,  ,  ,  ,  , 2, 91GHz
SH, 96, 201903020408,  30, AMSU,          C,  , 1210S,  7490E,      , 2,    ,  ,     ,  ,     ,    ,     ,     ,     ,     ,     ,  ,  ,  ,  ,  ,    ,    , S,  KNES,  MT,  ,    ,       ,   ,     ,     ,     ,    ,   AMSU,    ,     ,     ,     ,     ,     ,     ,     ,     ,     ,  ,  ,  ,  ,  ,  ,  ,  , 2, 89GHz
SH, 96, 201903020530,  10, DVTS,         CI,  , 1230S,  7470E,      , 2,  45, 2,     ,  ,     ,    ,     ,     ,     ,     ,     ,  ,  ,  ,  ,  ,    ,    , S,  KNES,  MT,  VIM, 3, 3030 /////,      ,   ,   MET8, LLCC, T, DT=3.0 BO CBND MET=2.5 PT=3.0 FTBO DT
SH, 96, 201912162330,  10, DVTS,         CI,  , 1180S,  7000E,      , 2,  25, 2,     ,  ,     ,    ,     ,     ,     ,     ,     ,  ,  ,  ,  ,  ,    ,    , S,  KNES,  JV,   IM, 3, 1010 /////,      ,   ,   MET8, LLCC, T, DT=1.0 BO CBND MET=1.0 PT=1.0 FTBO DT
SH, 96, 201912170530,  10, DVTS,         CI,  , 1160S,  6990E,      , 3,  25, 2,     ,  ,     ,    ,     ,     ,     ,     ,     ,  ,  ,  ,  ,  ,    ,    , S,  KNES,  JK,  VIM, 5, 1010 /////,      ,   ,   MET8, LLCC, T, DT=1.0 BO CBND MET=1.0 PT=1.0 FTBO MET
SH, 96, 201912171130,  10, DVTS,          C,  , 1310S,  7060E,      , 2,  25, 2,     ,  ,     ,    ,     ,     ,     ,     ,     ,  ,  ,  ,  ,  ,    ,    , S,  KNES,  PL,  VIM, 3, 0000 /////,      ,   ,   MET8, LLCC, T, DT=0.0 BO CBND MET=X.X PT=X.X FTBO DT
SH, 96, 201912171730,  10, DVTS,         CI,  , 1370S,  7030E,      , 2,  25, 2,     ,  ,     ,    ,     ,     ,     ,     ,     ,  ,  ,  ,  ,  ,    ,    , S,  KNES,  PL,   IM, 3, 1010 /////,      ,   ,   MET8, LLCC, T, DT=1.0 BO CBND MET=1.0 PT=1.0 FTBO DT
SH, 96, 201912172330,  10, DVTS,         CI,  , 1290S,  6950E,      , 2,  25, 2,     ,  ,     ,    ,     ,     ,     ,     ,     ,  ,  ,  ,  ,  ,    ,    , S,  KNES,  JL,   IM, 3, 1010 /////,      ,   ,   MET8, LLCC, T, DT=1.5 BO CBND MET=1.0 PT=1.0 FTBO MET
SH, 96, 201912180530,  10, DVTS,         CI,  , 1360S,  6960E,      , 3,  25, 2,     ,  ,     ,    ,     ,     ,     ,     ,     ,  ,  ,  ,  ,  ,    ,    , S,  KNES,  BZ,  VIM, 5, 1010 /////,      ,   ,   MET8, LLCC, T, DT=1.0 BO CBND MET=1.0 PT=1.0 FTBO DT
SH, 96, 201912181130,  10, DVTS,         CI,  , 1380S,  6930E,      , 3,  25, 2,     ,  ,     ,    ,     ,     ,     ,     ,     ,  ,  ,  ,  ,  ,    ,    , S,  KNES,  BZ,  VIM, 5, 1515 /////,      ,   ,   MET8, LLCC, T, DT=1.5 BO CBND MET=1.5 PT=1.5 FTBO MET
SH, 96, 201912181730,  10, DVTS,         CI,  , 1500S,  7030E,      , 3,  30, 2,     ,  ,     ,    ,     ,     ,     ,     ,     ,  ,  ,  ,  ,  ,    ,    , S,  KNES,  MT,   IM, 5, 2020 /////,      ,   ,   MET8, LLCC, T, DT=2.5 BO CBND MET=2.0 PT=2.0 FTBO MET
SH, 96, 201912182330,  10, DVTS,         CI,  , 1590S,  7050E,      , 2,  35, 2,     ,  ,     ,    ,     ,     ,     ,     ,     ,  ,  ,  ,  ,  ,    ,    , S,  KNES,  JL,   IM, 3, 2525 /////,      ,   ,   MET8, LLCC, T, DT=2.5 BO CBND MET=2.0 PT=2.5 FTBO PT
SH, 96, 201912190530,  10, DVTS,         CI,  , 1550S,  7090E,      , 2,  35, 2,     ,  ,     ,    ,     ,     ,     ,     ,     ,  ,  ,  ,  ,  ,    ,    , S,  KNES,  VK,  VIM, 3, 2525 /////,      ,   ,   MET8, LLCC, T, DT=2.5 BO CBND MET=2.0 PT=2.5 FTBO DT
SH, 96, 201912191130,  10, DVTS,         CI,  , 1410S,  6970E,      , 2,  35, 2,     ,  ,     ,    ,     ,     ,     ,     ,     ,  ,  ,  ,  ,  ,    ,    , S,  KNES,  VK,  VIM, 3, 1525 /////,      ,   ,   MET8, LLCC, T, DT=1.0 BO SHR  MET=1.0 PT=1.0 FTBO CON
SH, 96, 201912191730,  10, DVTS,         CI,  , 1480S,  7000E,      , 2,  35, 2,     ,  ,     ,    ,     ,     ,     ,     ,     ,  ,  ,  ,  ,  ,    ,    , S,  KNES,  AS,   IM, 3, 1525 /////,      ,   ,   MET8, LLCC, T, DT=1.5 BO SHR  MET=1.0 PT=1.5 FTBO DT
SH, 96, 201912192330,  10, DVTS,         CI,  , 1400S,  6910E,      , 2,  25, 2,     ,  ,     ,    ,     ,     ,     ,     ,     ,  ,  ,  ,  ,  ,    ,    , S,  KNES,  JL,   IM, 3, 1015 /////,      ,   ,   MET8, LLCC, T, DT=1.5 BO SHR  MET=1.5 PT=1.0 FTBO PT
SH, 96, 201912200530,  10, DVTS,          C,  , 1420S,  6940E,      , 2,  25, 2,     ,  ,     ,    ,     ,     ,     ,     ,     ,  ,  ,  ,  ,  ,    ,    , S,  KNES,  VK,  VIM, 3, 0000 /////,      ,   ,   MET8, LLCC, T, DT=0.0 BO SHR  MET=1.0 PT=0.0 FTBO DT
SH, 96, 201912232330,  10, DVTS,         CI,  , 1240S,  5280E,      , 3,  25, 2,     ,  ,     ,    ,     ,     ,     ,     ,     ,  ,  ,  ,  ,  ,    ,    , S,  KNES,  KH,   IM, 5, 1010 /////,      ,   ,   MET8, LLCC, T, DT=1.0 BO CBND MET=1.0 PT=1.0 FTBO DT
SH, 96, 201912240530,  10, DVTS,          C,  , 1210S,  5590E,      , 3,  25, 2,     ,  ,     ,    ,     ,     ,     ,     ,     ,  ,  ,  ,  ,  ,    ,    , S,  KNES,  VK,  VIM, 5, 0000 /////,      ,   ,   MET8, LLCC, T, DT=0.0 BO SHR  MET=0.0 PT=0.0 FTBO DT
SH, 96, 201912272330,  10, DVTS,         CI,  , 1350S,  5900E,      , 3,  25, 2,     ,  ,     ,    ,     ,     ,     ,     ,     ,  ,  ,  ,  ,  ,    ,    , S,  KNES,  MT,   IM, 5, 1010 /////,      ,   ,   MET8, LLCC, T, DT=1.0 BO CBND MET=1.0 PT=1.0 FTBO DT
SH, 96, 201912280530,  10, DVTS,         CI,  , 1390S,  5800E,      , 2,  25, 2,     ,  ,     ,    ,     ,     ,     ,     ,     ,  ,  ,  ,  ,  ,    ,    , S,  KNES,  JF,  VIM, 3, 1515 /////,      ,   ,   MET8, LLCC, T, DT=1.5 BO CBND MET=1.0 PT=1.5 FTBO DT
SH, 96, 201912281130,  10, DVTS,         CI,  , 1510S,  6080E,      , 2,  25, 2,     ,  ,     ,    ,     ,     ,     ,     ,     ,  ,  ,  ,  ,  ,    ,    , S,  KNES,  JF,  VIM, 3, 1515 /////,      ,   ,   MET8, LLCC, T, DT=1.5 BO CBND MET=1.5 PT=1.5 FTBO DT
SH, 96, 201912281730,  10, DVTS,         CI,  , 1600S,  6010E,      , 3,  25, 2,     ,  ,     ,    ,     ,     ,     ,     ,     ,  ,  ,  ,  ,  ,    ,    , S,  KNES,  ER,   IM, 5, 1515 /////,      ,   ,   MET8, LLCC, T, DT=2.0 BO SHR  MET=1.5 PT=1.5 FTBO MET
SH, 96, 201912282330,  10, DVTS,         CI,  , 1720S,  6040E,      , 3,  30, 2,     ,  ,     ,    ,     ,     ,     ,     ,     ,  ,  ,  ,  ,  ,    ,    , S,  KNES,  MT,   IM, 5, 2020 /////,      ,   ,   MET8, LLCC, T, DT=2.0 BO CBND MET=2.0 PT=2.0 FTBO MET
SH, 96, 201912290530,  10, DVTS,         CI,  , 1810S,  6020E,      , 2,  30, 2,     ,  ,     ,    ,     ,     ,     ,     ,     ,  ,  ,  ,  ,  ,    ,    , S,  KNES,  JF,  VIM, 3, 2020 /////,      ,   ,   MET8, LLCC, T, DT=2.0 BO SHR  MET=2.0 PT=2.0 FTBO DT
SH, 96, 201912291130,  10, DVTS,         CI,  , 1950S,  5980E,      , 2,  30, 2,     ,  ,     ,    ,     ,     ,     ,     ,     ,  ,  ,  ,  ,  ,    ,    , S,  KNES,  JF,  VIM, 3, 2020 /////,      ,   ,   MET8, LLCC, T, DT=2.0 BO SHR  MET=1.5 PT=1.5 FTBO DT
SH, 96, 202001241130,  10, DVTS,         CI,  , 1460S, 16990W,      , 3,  25, 2,     ,  ,     ,    ,     ,     ,     ,     ,     ,  ,  ,  ,  ,  ,    ,    , P,  KNES,  AS,   IM, 5, 1010 /////,      ,   , GOES17, LLCC, T, DT=1.0 BO CBND MET=1.0 PT=1.0 FTBO DT
SH, 96, 202001241254,  30, SSMI,          C,  , 1530S, 16950W,      , 2,    ,  ,     ,  ,     ,    ,     ,     ,     ,     ,     ,  ,  ,  ,  ,  ,    ,    , P,  KNES,  AS,  ,    ,       ,   ,     ,     ,     ,    ,   SSMI,    ,     ,     ,     ,     ,     ,     ,     ,     ,     ,  ,  ,  ,  ,  ,  ,  ,  , 2, 85GHz
SH, 96, 202001241730,  10, DVTS,         CI,  , 1570S, 16850W,      , 2,  25, 2,     ,  ,     ,    ,     ,     ,     ,     ,     ,  ,  ,  ,  ,  ,    ,    , P,  KNES,  AS,  VIM, 3, 1515 /////,      ,   , GOES17, LLCC, T, DT=1.5 BO CBND MET=1.0 PT=1.5 FTBO PT
SH, 96, 202001242330,  10, DVTS,         CI,  , 1790S, 17040W,      , 2,  25, 2,     ,  ,     ,    ,     ,     ,     ,     ,     ,  ,  ,  ,  ,  ,    ,    , P,  KNES,  PL,  VIM, 3, 1015 /////,      ,   , GOES17, LLCC, T, DT=0.0 BO SHR  MET=0.0 PT=0.0 FTBO CON
SH, 96, 202001250530,  10, DVTS,         CI,  , 1860S, 16810W,      , 3,  25, 2,     ,  ,     ,    ,     ,     ,     ,     ,     ,  ,  ,  ,  ,  ,    ,    , P,  KNES,  ER,   IM, 5, 1015 /////,      ,   , GOES17, LLCC, T, DT=1.0 BO CBND MET=1.0 PT=1.0 FTBO MET
SH, 96, 202001251130,  10, DVTS,         CI,  , 2030S, 16780W,      , 3,  25, 2,     ,  ,     ,    ,     ,     ,     ,     ,     ,  ,  ,  ,  ,  ,    ,    , P,  KNES,  ER,   IM, 5, 1515 /////,      ,   , GOES17, LLCC, T, DT=1.5 BO SHR  MET=1.5 PT=1.5 FTBO MET
SH, 96, 202002210530,  10, DVTS,         CI,  , 2120S, 16980W,      , 2,  25, 2,     ,  ,     ,    ,     ,     ,     ,     ,     ,  ,  ,  ,  ,  ,    ,    , P,  KNES,  PL,   IM, 3, 1010 /////,      ,   , GOES17, LLCC, T, DT=1.0 BO SHR  MET=1.0 PT=1.0 FTBO DT
SH, 96, 202002211130,  10, DVTS,         CI,  , 2130S, 17010W,      , 3,  25, 2,     ,  ,     ,    ,     ,     ,     ,     ,     ,  ,  ,  ,  ,  ,    ,    , P,  KNES,  JK,   IM, 5, 1010 /////,      ,   , GOES17, LLCC, T, DT=1.0 BO SHR  MET=1.0 PT=1.0 FTBO DT
SH, 96, 202002211730,  10, DVTS,           ,  , 2130S, 16990W,      , 3, XXX, 2,     ,  ,     ,    ,     ,     ,     ,     ,     ,  ,  ,  ,  ,  ,    ,    , P,  KNES,  JK,   IM, 5, XXXX /////,      ,   , GOES17, LLCC, S,
